TimeEST,TemperatureF,Dew PointF,Humidity,Sea Level PressureIn,VisibilityMPH,Wind Direction,Wind SpeedMPH,Gust SpeedMPH,PrecipitationIn,Events,Conditions,WindDirDegrees,DateUTC
12:56 AM,24.1,18.0,77,30.15,10.0,ENE,6.9,-,N/A,,Clear,70,2012-11-07 05:56:00
1:56 AM,21.9,17.1,82,30.17,10.0,NE,3.5,-,N/A,,Clear,40,2012-11-07 06:56:00
2:56 AM,21.9,18.0,85,30.17,10.0,North,3.5,-,N/A,,Clear,360,2012-11-07 07:56:00
3:56 AM,19.0,16.0,88,30.17,10.0,Calm,Calm,-,N/A,,Clear,0,2012-11-07 08:56:00
4:56 AM,19.9,16.0,85,30.15,10.0,ENE,3.5,-,N/A,,Clear,70,2012-11-07 09:56:00
5:56 AM,19.0,15.1,85,30.15,10.0,Calm,Calm,-,N/A,,Clear,0,2012-11-07 10:56:00
6:56 AM,19.0,15.1,85,30.16,10.0,NE,3.5,-,N/A,,Clear,40,2012-11-07 11:56:00
7:56 AM,21.9,17.1,82,30.18,10.0,NE,4.6,-,N/A,,Clear,50,2012-11-07 12:56:00
8:56 AM,28.0,21.9,78,30.18,10.0,NE,6.9,-,N/A,,Clear,40,2012-11-07 13:56:00
9:56 AM,30.9,21.9,69,30.18,10.0,NE,9.2,-,N/A,,Clear,40,2012-11-07 14:56:00
10:56 AM,35.1,21.9,59,30.17,10.0,NE,10.4,-,N/A,,Clear,50,2012-11-07 15:56:00
11:56 AM,37.9,21.0,51,30.14,10.0,NNE,11.5,-,N/A,,Clear,30,2012-11-07 16:56:00
12:56 PM,39.0,19.9,46,30.11,10.0,NE,10.4,19.6,N/A,,Clear,40,2012-11-07 17:56:00
1:56 PM,39.0,19.9,46,30.09,10.0,NNE,15.0,-,N/A,,Clear,30,2012-11-07 18:56:00
2:56 PM,39.0,19.9,46,30.09,10.0,NE,15.0,-,N/A,,Clear,40,2012-11-07 19:56:00
3:56 PM,37.9,19.0,47,30.09,10.0,NNE,13.8,-,N/A,,Clear,30,2012-11-07 20:56:00
4:56 PM,35.1,19.0,52,30.10,10.0,NNE,11.5,-,N/A,,Clear,30,2012-11-07 21:56:00
5:56 PM,33.1,21.0,61,30.12,10.0,NNE,11.5,-,N/A,,Clear,30,2012-11-07 22:56:00
6:56 PM,32.0,21.0,64,30.12,10.0,NE,11.5,-,N/A,,Clear,40,2012-11-07 23:56:00
7:56 PM,30.9,21.0,67,30.13,10.0,NE,8.1,-,N/A,,Clear,40,2012-11-08 00:56:00
8:56 PM,30.0,21.0,69,30.12,10.0,NE,12.7,-,N/A,,Clear,40,2012-11-08 01:56:00
9:56 PM,30.0,21.0,69,30.10,10.0,NE,11.5,-,N/A,,Clear,40,2012-11-08 02:56:00
10:56 PM,28.9,21.0,72,30.09,10.0,NNE,9.2,-,N/A,,Clear,30,2012-11-08 03:56:00
11:56 PM,28.9,21.0,72,30.08,10.0,NE,9.2,-,N/A,,Clear,40,2012-11-08 04:56:00